This is the latest recevied weather packets stored in our database for station/object KB4MOX. If no packets are shown the sender has not sent any weather packets the latest 10 day(s).
| Time | Temp. | Humidity | Pressure | Rain* | Wind** | Luminosity | Snow |
|---|---|---|---|---|---|---|---|
| 1777553442 | 18.89° C | 96% | 1010.6 hPa | 0 mm | - | 65 W/m² | - |
| 1777553138 | 18.89° C | 96% | 1010.7 hPa | 0 mm | - | 66 W/m² | - |
| 1777552838 | 18.89° C | 96% | 1010.6 hPa | 0 mm | - | 69 W/m² | - |
| 1777552533 | 18.89° C | 96% | 1010.6 hPa | 0 mm | - | 60 W/m² | - |
| 1777552230 | 18.89° C | 96% | 1010.6 hPa | 0 mm | - | 42 W/m² | - |
| 1777551927 | 18.89° C | 96% | 1010.6 hPa | 0 mm | - | 33 W/m² | - |
| 1777551625 | 18.89° C | 96% | 1010.7 hPa | 0 mm | - | 51 W/m² | - |
| 1777551322 | 18.33° C | 96% | 1010.7 hPa | 0 mm | - | 40 W/m² | - |
| 1777551018 | 18.33° C | 96% | 1010.9 hPa | 0 mm | - | 32 W/m² | - |
| 1777550715 | 18.33° C | 96% | 1010.7 hPa | 0 mm | - | 26 W/m² | - |
| 1777550412 | 18.33° C | 95% | 1010.8 hPa | 0 mm | - | 23 W/m² | - |
| 1777550108 | 18.33° C | 95% | 1011.1 hPa | 0 mm | - | 26 W/m² | - |
| 1777549804 | 18.33° C | 95% | 1010.9 hPa | 0 mm | - | 53 W/m² | - |
| 1777549500 | 17.78° C | 95% | 1011.1 hPa | 0 mm | - | 20 W/m² | - |
| 1777549196 | 17.78° C | 95% | 1011 hPa | 0 mm | - | 11 W/m² | - |
| 1777548893 | 18.33° C | 95% | 1011 hPa | 0 mm | - | 12 W/m² | - |
| 1777548590 | 18.33° C | 95% | 1010.9 hPa | 0 mm | - | 10 W/m² | - |
| 1777548286 | 18.33° C | 94% | 1010.8 hPa | 0 mm | - | 8 W/m² | - |
| 1777547984 | 18.33° C | 94% | 1010.9 hPa | 0 mm | - | 8 W/m² | - |
| 1777547679 | 18.33° C | 94% | 1010.6 hPa | 0 mm | - | 10 W/m² | - |
| 1777547376 | 18.33° C | 93% | 1010.4 hPa | 0 mm | - | 6 W/m² | - |
| 1777547074 | 18.33° C | 92% | 1010 hPa | 3.05 mm | - | 2 W/m² | - |
| 1777546771 | 18.89° C | 91% | 1010.1 hPa | 7.87 mm | - | 2 W/m² | - |
| 1777546468 | 18.89° C | 90% | 1010.3 hPa | 4.83 mm | - | 1 W/m² | - |
| 1777546165 | 18.89° C | 90% | 1010.3 hPa | 0 mm | - | 0 W/m² | - |
* Rain latest hour (hover to see other rain measurements)
** Current wind speed in m/s (hover to see current wind gust speed)